Location: New Canada
(47.1017°N, 68.5042°W)
Time: 05:53:20
(UTC+00:00)

UWE-3 - Visible Passes

Search period start: 23 March 2023 00:00
Search period end: 02 April 2023 00:00
Orbit: 580 x 670 km, 97.7° (Epoch: 22 March)

Date Brightness Start Highest point End Pass type
(mag) Time Alt. Az. Time Alt. Az. Time Alt. Az.
23 Mar ? 06:50:49 10° NE 06:53:29 25° ENE 06:53:29 25° ENE visible
23 Mar ? 08:26:54 10° N 08:30:45 33° WNW 08:30:45 33° WNW visible
24 Mar ? 07:09:22 10° NNE 07:12:37 36° ENE 07:12:37 36° ENE visible
24 Mar ? 08:46:05 10° NNW 08:49:40 23° WNW 08:49:54 23° WNW visible
25 Mar ? 07:28:02 10° NNE 07:31:45 54° NE 07:31:45 54° NE visible
25 Mar ? 09:05:28 10° NNW 09:08:16 16° WNW 09:09:01 16° WNW visible
26 Mar ? 06:12:48 10° ENE 06:13:36 11° ENE 06:13:36 11° ENE visible
26 Mar ? 07:46:49 10° N 07:50:52 68° NNW 07:50:52 68° NNW visible
26 Mar ? 09:25:26 10° NW 09:26:48 11° NW 09:28:08 10° WNW visible
27 Mar ? 06:30:27 10° NE 06:32:43 17° ENE 06:32:43 17° ENE visible
27 Mar ? 08:05:43 10° N 08:09:59 52° WNW 08:09:59 52° WNW visible
28 Mar ? 06:48:41 10° NE 06:51:49 26° ENE 06:51:49 26° ENE visible
28 Mar ? 08:24:42 10° N 08:28:47 34° WNW 08:29:05 34° WNW visible
29 Mar ? 07:07:09 10° NNE 07:10:54 39° ENE 07:10:54 39° ENE visible
29 Mar ? 08:43:49 10° NNW 08:47:24 24° WNW 08:48:10 23° W visible
30 Mar ? 07:25:46 10° NNE 07:29:58 62° E 07:29:58 62° E visible
30 Mar ? 09:03:09 10° NNW 09:05:57 17° WNW 09:07:15 15° W visible
31 Mar ? 06:10:50 10° ENE 06:11:46 11° E 06:11:46 11° E visible
31 Mar ? 07:44:30 10° NNE 07:49:00 83° WNW 07:49:03 83° W visible
31 Mar ? 09:23:01 10° NW 09:24:26 11° WNW 09:25:50 10° WNW visible
01 Apr ? 06:28:11 10° NE 06:30:49 17° E 06:30:49 17° E visible
01 Apr ? 08:03:20 10° N 08:07:42 54° WNW 08:08:05 52° W visible
